Wetterdaten von Putzkau
Wetterdaten: aktuell Sonntag, 14.04.2024 13:30
Datum Zeit Temp. A. Feuchte A. Luftdruck Regen Wind Windben
14.04.2024 13:30 18,0 C 63 % 1021,0 hPa 0,0 l/m 0,0 km/h (0 Bft) 0,0 km/h (0 Bft)
14.04.2024 12:37 18,2 C 63 % 1020,6 hPa 0,0 l/m 0,0 km/h (0 Bft) 0,0 km/h (0 Bft)
14.04.2024 11:45 18,0 C 62 % 1020,6 hPa 0,0 l/m 0,0 km/h (0 Bft) 0,0 km/h (0 Bft)
14.04.2024 10:45 17,8 C 69 % 1020,6 hPa 0,0 l/m 0,0 km/h (0 Bft) 0,0 km/h (0 Bft)
14.04.2024 10:01 18,9 C 66 % 1019,8 hPa 0,0 l/m 0,0 km/h (0 Bft) 0,0 km/h (0 Bft)
14.04.2024 09:00 17,4 C 68 % 1019,5 hPa 0,0 l/m 0,0 km/h (0 Bft) 0,0 km/h (0 Bft)
14.04.2024 08:45 17,4 C 68 % 1019,5 hPa 0,0 l/m 0,0 km/h (0 Bft) 0,0 km/h (0 Bft)
14.04.2024 07:45 16,6 C 68 % 1018,5 hPa 0,0 l/m 0,0 km/h (0 Bft) 0,0 km/h (0 Bft)
14.04.2024 06:45 16,0 C 66 % 1018,6 hPa 0,0 l/m 0,0 km/h (0 Bft) 0,0 km/h (0 Bft)
14.04.2024 05:45 16,6 C 64 % 1018,7 hPa 0,0 l/m 0,0 km/h (0 Bft) 0,0 km/h (0 Bft)
14.04.2024 04:45 17,0 C 62 % 1018,8 hPa 0,0 l/m 0,0 km/h (0 Bft) 0,0 km/h (0 Bft)
14.04.2024 03:45 16,8 C 63 % 1019,1 hPa 0,0 l/m 0,0 km/h (0 Bft) 0,0 km/h (0 Bft)
14.04.2024 02:45 16,0 C 64 % 1019,9 hPa 0,0 l/m 0,0 km/h (0 Bft) 0,0 km/h (0 Bft)
14.04.2024 01:45 16,3 C 65 % 1020,4 hPa 0,0 l/m 0,0 km/h (0 Bft) 0,0 km/h (0 Bft)
14.04.2024 00:45 16,1 C 66 % 1021,0 hPa 0,0 l/m 0,0 km/h (0 Bft) 0,0 km/h (0 Bft)
13.04.2024 23:45 15,3 C 69 % 1021,3 hPa 0,0 l/m 0,0 km/h (0 Bft) 0,0 km/h (0 Bft)
13.04.2024 22:45 14,7 C 71 % 1022,2 hPa 0,0 l/m 0,0 km/h (0 Bft) 0,0 km/h (0 Bft)
13.04.2024 21:45 13,1 C 75 % 1022,7 hPa 0,0 l/m 0,0 km/h (0 Bft) 0,0 km/h (0 Bft)
13.04.2024 20:45 14,1 C 70 % 1023,6 hPa 0,0 l/m 0,0 km/h (0 Bft) 0,0 km/h (0 Bft)
13.04.2024 19:45 17,1 C 64 % 1023,8 hPa 0,0 l/m 0,0 km/h (0 Bft) 0,0 km/h (0 Bft)
13.04.2024 18:45 19,4 C 58 % 1024,4 hPa 0,0 l/m 0,0 km/h (0 Bft) 0,0 km/h (0 Bft)
13.04.2024 17:45 20,5 C 53 % 1025,4 hPa 0,0 l/m 0,0 km/h (0 Bft) 0,0 km/h (0 Bft)
13.04.2024 16:45 21,3 C 51 % 1025,9 hPa 0,0 l/m 0,0 km/h (0 Bft) 0,0 km/h (0 Bft)
13.04.2024 15:45 21,7 C 52 % 1026,1 hPa 0,0 l/m 0,0 km/h (0 Bft) 0,0 km/h (0 Bft)
13.04.2024 14:45 20,7 C 53 % 1026,9 hPa 0,0 l/m 0,0 km/h (0 Bft) 0,0 km/h (0 Bft)
13.04.2024 14:15 21,1 C 54 % 1027,2 hPa 0,0 l/m 0,0 km/h (0 Bft) 0,0 km/h (0 Bft)
_ Min-Zeit 21:15 17:15 07:45 - 13:30 13:30
Minimum _ 12,9 C 51 % 1018,5 hPa - 0,0 km/h (0 Bft) 0,0 km/h (0 Bft)
_ Max-Zeit 15:45 21:45 14:15 13:30 13:30 13:30
Maximum _ 21,7 C 75 % 1027,2 hPa 0,0 l/m 0,0 km/h
SO (0 Bft)
0,0 km/h
SO (0 Bft)
Durchschnitt _ 17,6 C 63 % 1022,0 hPa #0,0 l/m 0,0 km/h (0 Bft) 0,0 km/h (0 Bft)
© 2024 Michael Jger webmaster [at] putzkau.de